Wetterdaten: aktuell Samstag, 03.06.2023 15:55
Datum Zeit Temp 2m Wasser SB Wasser NSB Temp 2m ob Temp 10cm Regen Wind mittel Richtung Richtung Taupunkt Windben
03.06.2023 15:55 21,3 C 23,4 C 22,7 C 24,9 C 20,4 C 0,0 l/m 4,7 km/h SO 135 8,2 C 5,3 km/h
03.06.2023 15:50 21,2 C 23,3 C 22,6 C 24,9 C 20,4 C 0,0 l/m 5,1 km/h N-NW 337 8,1 C 10,0 km/h
03.06.2023 15:45 21,1 C 23,3 C 22,6 C 24,9 C 20,5 C 0,0 l/m 3,9 km/h N-NO 22 8,4 C 4,3 km/h
03.06.2023 15:40 21,1 C 23,4 C 22,7 C 24,9 C 20,4 C 0,0 l/m 4,2 km/h N 360 8,7 C 10,1 km/h
03.06.2023 15:35 21,1 C 23,4 C 22,5 C 25,0 C 20,5 C 0,0 l/m 5,1 km/h N 360 8,0 C 6,6 km/h
03.06.2023 15:30 21,1 C 23,3 C 22,6 C 24,8 C 20,5 C 0,0 l/m 5,0 km/h S-SO 157 8,0 C 4,8 km/h
03.06.2023 15:25 21,0 C 23,3 C 22,6 C 24,8 C 20,4 C 0,0 l/m 5,6 km/h O-SO 112 8,6 C 6,1 km/h
03.06.2023 15:20 20,9 C 23,3 C 22,5 C 24,7 C 20,5 C 0,0 l/m 5,5 km/h W 270 8,8 C 3,1 km/h
03.06.2023 15:15 20,9 C 23,2 C 22,6 C 24,6 C 20,5 C 0,0 l/m 6,3 km/h O-NO 67 8,5 C 5,8 km/h
03.06.2023 15:10 20,8 C 23,0 C 22,4 C 24,7 C 20,6 C 0,0 l/m 6,4 km/h N 360 8,1 C 5,1 km/h
03.06.2023 15:05 21,0 C 23,1 C 22,6 C 24,8 C 20,8 C 0,0 l/m 5,5 km/h N-NO 22 7,6 C 8,9 km/h
03.06.2023 15:00 21,1 C 23,1 C 22,8 C 24,7 C 20,9 C 0,0 l/m 5,0 km/h SO 135 8,7 C 7,9 km/h
03.06.2023 14:55 21,1 C 23,0 C 22,3 C 24,6 C 21,0 C 0,0 l/m 6,0 km/h O-SO 112 8,7 C 10,1 km/h
03.06.2023 14:50 21,0 C 23,0 C 22,4 C 24,5 C 21,1 C 0,0 l/m 5,5 km/h N-NW 337 9,6 C 11,4 km/h
03.06.2023 14:45 20,8 C 23,1 C 22,5 C 24,3 C 21,0 C 0,0 l/m 4,5 km/h NO 45 9,1 C 8,2 km/h
03.06.2023 14:40 20,8 C 23,1 C 22,5 C 24,2 C 21,0 C 0,0 l/m 4,7 km/h O 90 9,1 C 3,5 km/h
03.06.2023 14:35 20,6 C 23,0 C 22,4 C 24,1 C 21,2 C 0,0 l/m 5,3 km/h W-SW 247 8,6 C 7,2 km/h
03.06.2023 14:30 20,5 C 22,9 C 22,7 C 24,1 C 21,2 C 0,0 l/m 5,8 km/h SW 225 8,8 C 13,5 km/h
03.06.2023 14:25 20,5 C 22,9 C 22,4 C 23,9 C 21,4 C 0,0 l/m 5,5 km/h O-SO 112 8,8 C 4,5 km/h
03.06.2023 14:20 20,3 C 22,9 C 22,6 C 23,8 C 21,4 C 0,0 l/m 5,8 km/h O-SO 112 8,6 C 7,2 km/h
03.06.2023 14:15 20,2 C 22,9 C 22,3 C 23,7 C 21,3 C 0,0 l/m 5,3 km/h SO 135 7,9 C 7,2 km/h
03.06.2023 14:10 20,2 C 22,9 C 22,0 C 23,7 C 21,3 C 0,0 l/m 5,0 km/h N-NO 22 7,6 C 10,6 km/h
03.06.2023 14:05 20,3 C 22,8 C 22,1 C 23,7 C 21,6 C 0,0 l/m 4,3 km/h N 360 7,3 C 1,9 km/h
03.06.2023 14:00 20,3 C 22,8 C 22,0 C 23,8 C 21,6 C 0,0 l/m 4,3 km/h W-NW 292 8,3 C 10,5 km/h
03.06.2023 13:55 20,1 C 22,9 C 22,0 C 23,7 C 21,9 C 0,0 l/m 5,1 km/h SO 135 8,4 C 5,5 km/h
03.06.2023 13:50 20,0 C 23,0 C 22,0 C 23,5 C 21,7 C 0,0 l/m 4,5 km/h NO 45 7,7 C 4,8 km/h
_ Min-Zeit 06:00 07:55 08:00 05:40 05:50 - 22:00 - - 05:30 20:05
Minimum _ 7,2 C 21,6 C 19,9 C 7,1 C 6,1 C - 0,0 km/h - - 3,0 C 0,0 km/h
_ Max-Zeit 15:55 17:10 17:00 15:35 12:30 16:00 15:10 - - 14:50 13:30
Maximum _ 21,3 C 23,4 C 23,1 C 25,0 C 23,6 C 0,0 l/m 6,4 km/h
N
- - 9,6 C 22,4 km/h
N
Durchschnitt _ 14,1 C 22,6 C 21,6 C 15,8 C 14,1 C #0,0 l/m 2,6 km/h N - 6,9 C 3,8 km/h